Weather History for Warrensburg, MO

Change the Weather History Date:

Thursday, November 22, 2012

  Actual Average (KSZL) Record (KSZL)
Temperature  
Mean Temperature 57 °F -  
Max Temperature 68 °F 51 °F 111 °F (2004)
Min Temperature 44 °F 34 °F 19 °F (2000)
Degree Days  
Heating Degree Days 8    
Growing Degree Days 7 (Base 50)    
Moisture  
Dew Point 41 °F    
Average Humidity 56    
Maximum Humidity 72    
Minimum Humidity 46    
Precipitation  
Precipitation 0.00 in - - ()
Sea Level Pressure  
Sea Level Pressure 29.98 in    
Wind  
Wind Speed 12 mph (SSW)    
Max Wind Speed 22 mph    
Max Gust Speed 30 mph    
Visibility 10 miles    
Events Rain    
Averages and records for this station are not official NWS values.
T = Trace of Precipitation, MM = Missing Value Source: NWS Daily Summary

Daily Weather History Graph

Daily Weather History Graph

Search for Another Location

Airport:

Trip Planner

Search our weather history database for the weather conditions in past years. The results will help you decide how hot, cold, wet, or windy it might be!

Date:

Astronomy

Nov. 22, 2012 Rise Set
Actual Time 7:05 AM CST 4:56 PM CST
Civil Twilight 6:36 AM CST 5:25 PM CST
Nautical Twilight 6:04 AM CST 5:58 PM CST
Astronomical Twilight 5:32 AM CST 6:30 PM CST
Moon 1:40 PM CST 1:29 AM CST
Length of Visible Light 10h 48m
Length of Day
9h 51m
Waxing Gibbous, 71% of the Moon is Illuminated
Nov 22
Waxing Gibbous
Nov 28
Full
Dec 6
Last Quarter
Dec 13
New
Dec 19
First Quarter

Hourly Weather History & Observations

Time (CST) Temp. Windchill Dew Point Humidity Pressure Visibility Wind Dir Wind Speed Gust Speed Precip Events Conditions
12:15 AM 51.8 °F - 35.6 °F 54% 30.02 in 10.0 mi SSE 6.9 mph - N/A   Clear
12:35 AM 50.0 °F - 35.6 °F 58% 30.02 in 10.0 mi SSE 5.8 mph - N/A   Clear
12:55 AM 50.0 °F - 35.6 °F 58% 30.01 in 10.0 mi South 8.1 mph - N/A   Clear
1:15 AM 51.8 °F - 35.6 °F 54% 30.00 in 10.0 mi South 10.4 mph - N/A   Clear
1:35 AM 51.8 °F - 35.6 °F 54% 30.00 in 10.0 mi South 10.4 mph - N/A   Clear
1:55 AM 51.8 °F - 35.6 °F 54% 30.00 in 10.0 mi South 10.4 mph - N/A   Clear
2:15 AM 51.8 °F - 35.6 °F 54% 29.99 in 10.0 mi South 10.4 mph - N/A   Scattered Clouds
2:55 AM 51.8 °F - 37.4 °F 58% 29.98 in 10.0 mi SSE 10.4 mph - N/A   Scattered Clouds
3:15 AM 51.8 °F - 37.4 °F 58% 29.97 in 10.0 mi SSE 9.2 mph - N/A   Scattered Clouds
3:35 AM 51.8 °F - 37.4 °F 58% 29.97 in 10.0 mi SSE 11.5 mph - N/A   Scattered Clouds
3:55 AM 51.8 °F - 37.4 °F 58% 29.96 in 10.0 mi South 11.5 mph - N/A   Mostly Cloudy
4:15 AM 53.6 °F - 37.4 °F 54% 29.95 in 10.0 mi South 12.7 mph - N/A   Overcast
4:35 AM 53.6 °F - 37.4 °F 54% 29.95 in 10.0 mi South 15.0 mph - N/A   Overcast
4:55 AM 53.6 °F - 37.4 °F 54% 29.95 in 10.0 mi South 12.7 mph - N/A   Mostly Cloudy
5:15 AM 53.6 °F - 37.4 °F 54% 29.94 in 10.0 mi South 13.8 mph 19.6 mph N/A   Clear
5:35 AM 53.6 °F - 37.4 °F 54% 29.93 in 10.0 mi South 11.5 mph 19.6 mph N/A   Clear
6:15 AM 53.6 °F - 37.4 °F 54% 29.93 in 10.0 mi South 11.5 mph 19.6 mph N/A   Clear
6:35 AM 53.6 °F - 39.2 °F 58% 29.94 in 10.0 mi South 9.2 mph - N/A   Clear
6:55 AM 53.6 °F - 39.2 °F 58% 29.94 in 10.0 mi South 11.5 mph 17.3 mph N/A   Scattered Clouds
7:15 AM 55.4 °F - 39.2 °F 54% 29.94 in 10.0 mi South 10.4 mph 17.3 mph N/A   Clear
7:35 AM 55.4 °F - 41.0 °F 58% 29.93 in 10.0 mi South 12.7 mph 17.3 mph N/A   Clear
7:55 AM 55.4 °F - 41.0 °F 58% 29.93 in 10.0 mi South 12.7 mph 19.6 mph N/A   Clear
8:15 AM 55.4 °F - 41.0 °F 58% 29.93 in 10.0 mi South 13.8 mph 18.4 mph N/A   Clear
8:35 AM 55.4 °F - 41.0 °F 58% 29.92 in 10.0 mi South 15.0 mph - N/A   Clear
8:55 AM 59.0 °F - 41.0 °F 51% 29.92 in 10.0 mi South 16.1 mph 20.7 mph N/A   Clear
9:15 AM 59.0 °F - 42.8 °F 55% 29.92 in 10.0 mi South 17.3 mph 24.2 mph N/A   Clear
9:35 AM 62.6 °F - 42.8 °F 48% 29.93 in 10.0 mi South 15.0 mph 21.9 mph N/A   Clear
9:55 AM 62.6 °F - 42.8 °F 48% 29.92 in 10.0 mi South 20.7 mph 27.6 mph N/A   Clear
10:15 AM 62.6 °F - 42.8 °F 48% 29.92 in 10.0 mi South 19.6 mph 25.3 mph N/A   Clear
10:35 AM 64.4 °F - 44.6 °F 49% 29.93 in 10.0 mi South 16.1 mph 26.5 mph N/A   Clear
10:55 AM 64.4 °F - 44.6 °F 49% 29.92 in 10.0 mi South 18.4 mph 26.5 mph N/A   Clear
11:15 AM 64.4 °F - 44.6 °F 49% 29.91 in 10.0 mi South 17.3 mph 24.2 mph N/A   Clear
11:35 AM 64.4 °F - 44.6 °F 49% 29.90 in 10.0 mi SSW 15.0 mph 23.0 mph N/A   Clear
11:55 AM 66.2 °F - 46.4 °F 49% 29.90 in 10.0 mi SSW 20.7 mph 28.8 mph N/A   Clear
12:15 PM 66.2 °F - 46.4 °F 49% 29.89 in 10.0 mi SSW 19.6 mph 29.9 mph N/A   Clear
12:35 PM 68.0 °F - 46.4 °F 46% 29.88 in 10.0 mi SSW 20.7 mph 26.5 mph N/A   Clear
12:55 PM 68.0 °F - 46.4 °F 46% 29.88 in 10.0 mi SSW 21.9 mph 27.6 mph N/A   Clear
1:15 PM 68.0 °F - 48.2 °F 49% 29.88 in 10.0 mi SSW 13.8 mph 25.3 mph N/A   Clear
1:35 PM 68.0 °F - 46.4 °F 46% 29.88 in 10.0 mi SSW 19.6 mph 29.9 mph N/A   Clear
1:55 PM 66.2 °F - 46.4 °F 49% 29.88 in 10.0 mi SSW 19.6 mph 28.8 mph N/A   Clear
2:15 PM 64.4 °F - 46.4 °F 52% 29.88 in 10.0 mi SSW 16.1 mph 21.9 mph N/A   Scattered Clouds
2:35 PM 64.4 °F - 46.4 °F 52% 29.90 in 10.0 mi SSW 15.0 mph 20.7 mph N/A   Scattered Clouds
2:55 PM 62.6 °F - 50.0 °F 63% 29.88 in 10.0 mi SSW 12.7 mph - N/A   Light Drizzle
3:15 PM 62.6 °F - 50.0 °F 63% 29.89 in 10.0 mi SSW 11.5 mph - N/A Rain Light Rain
3:35 PM 62.6 °F - 50.0 °F 63% 29.90 in 10.0 mi SSW 10.4 mph - N/A   Overcast
4:15 PM 60.8 °F - 51.8 °F 72% 29.92 in 10.0 mi SW 5.8 mph - N/A   Scattered Clouds
4:35 PM 60.8 °F - 51.8 °F 72% 29.93 in 10.0 mi SW 4.6 mph - N/A   Scattered Clouds
4:55 PM 59.0 °F - 50.0 °F 72% 29.95 in 10.0 mi SW 5.8 mph - N/A   Scattered Clouds
5:15 PM 59.0 °F - 50.0 °F 72% 29.95 in 10.0 mi SSW 6.9 mph - N/A   Scattered Clouds
5:35 PM 59.0 °F - 50.0 °F 72% 29.95 in 10.0 mi South 6.9 mph - N/A   Scattered Clouds
5:55 PM 59.0 °F - 50.0 °F 72% 29.96 in 10.0 mi SSW 5.8 mph - N/A   Scattered Clouds
6:15 PM 59.0 °F - 50.0 °F 72% 30.00 in 10.0 mi WNW 8.1 mph - N/A   Mostly Cloudy
6:35 PM 60.8 °F - 46.4 °F 59% 30.03 in 10.0 mi WNW 19.6 mph 27.6 mph N/A   Overcast
6:55 PM 60.8 °F - 41.0 °F 48% 30.05 in 10.0 mi NNW 15.0 mph 24.2 mph N/A   Overcast
7:15 PM 59.0 °F - 39.2 °F 48% 30.07 in 10.0 mi NNW 15.0 mph 25.3 mph N/A   Scattered Clouds
7:35 PM 57.2 °F - 37.4 °F 48% 30.09 in 10.0 mi NW 17.3 mph 24.2 mph N/A   Scattered Clouds
7:55 PM 55.4 °F - 37.4 °F 51% 30.11 in 10.0 mi NW 15.0 mph 25.3 mph N/A   Clear
8:15 PM 53.6 °F - 37.4 °F 54% 30.12 in 10.0 mi NW 12.7 mph 23.0 mph N/A   Clear
8:35 PM 53.6 °F - 37.4 °F 54% 30.14 in 10.0 mi NNW 19.6 mph 25.3 mph N/A   Clear
8:55 PM 51.8 °F - 35.6 °F 54% 30.15 in 10.0 mi NNW 15.0 mph 24.2 mph N/A   Clear
9:15 PM 51.8 °F - 35.6 °F 54% 30.16 in 10.0 mi NW 11.5 mph 18.4 mph N/A   Clear
9:35 PM 50.0 °F - 35.6 °F 58% 30.17 in 10.0 mi NW 15.0 mph 18.4 mph N/A   Clear
9:55 PM 50.0 °F - 35.6 °F 58% 30.17 in 10.0 mi NNW 13.8 mph 21.9 mph N/A   Clear
10:15 PM 48.2 °F - 35.6 °F 62% 30.19 in 10.0 mi NW 11.5 mph - N/A   Clear
10:35 PM 48.2 °F - 33.8 °F 58% 30.20 in 10.0 mi NW 11.5 mph - N/A   Clear
10:55 PM 46.4 °F 41.1 °F 33.8 °F 62% 30.21 in 10.0 mi NW 11.5 mph - N/A   Clear
11:15 PM 46.4 °F 41.5 °F 33.8 °F 62% 30.22 in 10.0 mi NW 10.4 mph - N/A   Clear
11:55 PM 44.6 °F 42.2 °F 33.8 °F 66% 30.23 in 10.0 mi NW 4.6 mph - N/A   Clear